Flag for Germany Weather past 2 weeks in Idar-Oberstein, Rhineland-Palatinate, Germany

Now
50 °F

Scattered clouds.


Feels Like: 45 °F
Forecast: 38 / 60 °F
Wind: 14 mph from West

Location: Hahn

Current Time: Sep 22, 2014 at 10:56:55 AM

Latest Report: Sep 22, 2014 at 10:20 AM


Visibility: 6 mi

Pressure: 30.12 "Hg

Humidity: 88%

Dew point: 46 °F

Location of Idar-ObersteinLocation

Historic Weather in Idar-Oberstein — Graph

°F

Idar-Oberstein temperature yesterday

Maximum temperature yesterday: 59 °F (at 12:20 PM)
Minimum temperature yesterday: 48 °F (at 11:50 PM)
Average temperature yesterday: 55 °F

Past Weeks' High & Low Weather Summary

 TemperatureHumidityPressure
High73 °F (Sep 18, 3:20 PM)100% (Sep 7, 9:20 AM)30.21 "Hg (Sep 7, 9:20 AM)
Low46 °F (Sep 12, 12:50 AM)59% (Sep 9, 5:20 PM)29.86 "Hg (Sep 18, 6:50 AM)
Average58 °F89%30.04 "Hg
* Reported Sep 7 9:20 AM — Sep 22 9:20 AM, Idar-Oberstein, Weather by CustomWeather, © 2014

Note: Actual official high and low records may vary slightly from our data, if they occured in-between our weather recording intervals... More about our weather records

Advertising

Idar-Oberstein weather history for previous 24 hours

 ConditionsComfort  
Time TempWeatherWind HumidityBarometerVisibility
9:20 AM
Sep 22
48 °FScattered clouds.13 mph94%30.12 "Hg5 mi
8:50 AM48 °FScattered clouds.10 mph94%30.12 "Hg4 mi
8:20 AM48 °FFog.10 mph94%30.12 "Hg3 mi
7:59 AM46 °FFog.8 mph100%30.12 "Hg2 mi
7:53 AM46 °FPassing clouds.8 mph100%30.12 "Hg6 mi
7:20 AM46 °FPassing clouds.8 mph100%30.12 "Hg6 mi
6:50 AM46 °FCool.9 mph100%30.12 "Hg2 mi
6:20 AM48 °FFog.7 mph100%30.12 "Hg1 mi
5:54 AM48 °FFog.9 mph100%30.12 "Hg1 mi
5:20 AM48 °FRain. Fog.8 mph100%30.12 "Hg1 mi
4:50 AM46 °FRain. Fog.7 mph100%30.12 "Hg1 mi
4:20 AM46 °FFog.8 mph100%30.12 "Hg1 mi
3:50 AM46 °FFog.7 mph100%30.12 "Hg1 mi
3:20 AM46 °FFog.8 mph100%30.12 "Hg1 mi
2:50 AM48 °FFog.7 mph94%30.12 "Hg2 mi
1:50 AM48 °FPassing clouds.7 mph94%30.12 "Hg4 mi
1:20 AM48 °FFog.6 mph94%30.12 "Hg3 mi
12:50 AM48 °FPassing clouds.7 mph94%30.12 "HgN/A
12:20 AM48 °FPassing clouds.7 mph100%30.12 "HgN/A
11:50 PM
Sep 21
48 °FPassing clouds.7 mph94%30.12 "HgN/A
11:20 PM50 °FPassing clouds.7 mph94%30.12 "HgN/A
10:20 PM50 °FPassing clouds.6 mph100%30.12 "HgN/A
9:50 PM50 °FPassing clouds.8 mph100%30.09 "HgN/A
9:20 PM52 °FPassing clouds.6 mph94%30.09 "HgN/A
8:50 PM52 °FPassing clouds.7 mph94%30.09 "HgN/A
8:20 PM52 °FPassing clouds.6 mph94%30.07 "HgN/A
7:50 PM52 °FPassing clouds.7 mph94%30.07 "HgN/A
7:20 PM54 °FPassing clouds.8 mph94%30.07 "HgN/A
6:50 PM54 °FScattered clouds.6 mph100%30.04 "HgN/A
6:20 PM55 °FScattered clouds.8 mph94%30.04 "HgN/A
5:50 PM55 °FBroken clouds.9 mph94%30.04 "HgN/A
5:20 PM55 °FBroken clouds.7 mph94%30.04 "HgN/A
4:20 PM55 °FLight rain. Partly sunny.10 mph100%30.04 "Hg6 mi
3:50 PM55 °FLight rain. Partly sunny.8 mph100%30.01 "Hg6 mi
3:20 PM55 °FSprinkles. Broken clouds.13 mph100%30.01 "HgN/A
2:50 PM57 °FSprinkles. Partly sunny.10 mph100%30.01 "HgN/A
2:20 PM57 °FSprinkles. Partly sunny.5 mph100%30.01 "Hg6 mi
1:57 PM57 °FFog.7 mph100%30.01 "Hg2 mi
1:50 PM57 °FFog.8 mph100%30.01 "Hg2 mi
1:20 PM55 °FLight rain. Fog.5 mph100%30.01 "Hg2 mi
12:50 PM55 °FRain showers. Fog.3 mph100%30.01 "Hg2 mi
12:20 PM59 °FRain showers. Fog.8 mph100%30.01 "Hg2 mi
11:20 AM57 °FFog.9 mph100%30.01 "Hg2 mi
10:50 AM57 °FFog.7 mph100%30.01 "Hg2 mi
10:20 AM57 °FCool.7 mph100%30.01 "Hg2 mi
Weather by CustomWeather, © 2014

See weather overviewHow to use our weather pages